Location: Bidwell Hollow
(37.7387°N, 90.1707°W)
Time: 23:05:41
(UTC+00:00)

Transit 2A - Pass Details

Date: 10 May 2026
Orbit: 595 x 949 km, 66.7° (Epoch: 6 June)

Event Time Altitude Azimuth Distance (km) Brightness Sun altitude
Rises 08:42:52 0° 323° (NW) 3,125 9.3 -22.3°
Reaches altitude 10° 08:45:27 10° 315° (NW) 2,143 8.3 -21.9°
Enters shadow 08:48:09 27° 291° (WNW) 1,270 6.9 -21.6°
